Regional Weather Roundup
Issued by NWS

Home | Current Version | Previous Version | Text Only | Print | Product List | Glossary Off
Versions: 1 2 3 4 5 6 7 8 9 10 11 12 13 14 15 16 17 18 19 20 21 22 23 24 25 26 27 28 29 30 31 32 33 34 35 36 37 38 39 40 41 42 43 44 45 46 47 48 49 50

000
ASUS43 KOAX 220010
RWRNE

WEATHER ROUNDUP FOR NEBRASKA
NATIONAL WEATHER SERVICE OMAHA NE
600 PM CST SUN JAN 21 2018

NOTES: SATELLITE DATA IS BEING USED TO AUGMENT CLOUD COVER ABOVE
       12000 FEET.
       "FAIR" INDICATES FEW OR NO CLOUDS BELOW 12,000 FEET WITH NO
       SIGNIFICANT WEATHER AND/OR OBSTRUCTIONS TO VISIBILITY.


NEZ001>004-019>022-054>056-220100-
NEBRASKA PANHANDLE

CITY           SKY/WX    TMP DP  RH WIND       PRES   REMARKS
SCOTTSBLUFF    LGT SNOW  28  26  92 NW15      29.97R FOG     WCI  16
6HR MIN TEMP:  28; 6HR MAX TEMP:  29; 6HR PCP:  0.02;

ALLIANCE       FOG       25  24  96 N22       29.92R VSB 3/4 WCI  10
6HR MIN TEMP:  25; 6HR MAX TEMP:  28; 6HR PCP: TRACE;

CHADRON        CLOUDY    29  26  89 W7        30.00R WCI  22
6HR MIN TEMP:  29; 6HR MAX TEMP:  30; 6HR PCP:  0.04;

GORDON         LGT SNOW  28  25  89 N15       29.95R WCI  16
6HR MIN TEMP:  28; 6HR MAX TEMP:  31;

KIMBALL        LGT SNOW  25  24  95 N16       29.90R WCI  12
SIDNEY         LGT SNOW  26  23  88 N28G36    29.87R FOG     WCI  10
6HR MIN TEMP:  26; 6HR MAX TEMP:  29; 6HR PCP: TRACE;

$$

NEZ057>060-069>072-079>082-220100-
SOUTHWEST NEBRASKA

CITY           SKY/WX    TMP DP  RH WIND       PRES   REMARKS
NORTH PLATTE   FOG       32  29  88 N22G28    29.76R VSB 1/2 WCI  19
6HR MIN TEMP:  32; 6HR MAX TEMP:  35; 6HR PCP:  0.12;

IMPERIAL       LGT SNOW  29  28  96 N29G37    29.76R FOG     WCI  14
6HR MIN TEMP:  29; 6HR MAX TEMP:  32; 6HR PCP:  0.22;

LEXINGTON      LGT SNOW  34  32  93 NE15      29.71R WCI  24
MCCOOK         LGT SNOW  32  32 100 NE21      29.70R VSB 3/4 WCI  20
6HR MIN TEMP:  32; 6HR MAX TEMP:  33; 6HR PCP:  0.06;

OGALLALA       CLOUDY    31  29  93 N23G29    29.83R WCI  18
$$

NEZ005>010-023>029-035>040-094-220100-
NORTH CENTRAL NEBRASKA

CITY           SKY/WX    TMP DP  RH WIND       PRES   REMARKS
VALENTINE      LGT SNOW  32  29  88 N14       29.92R FOG     WCI  22
6HR MIN TEMP:  32; 6HR MAX TEMP:  34; 6HR PCP:  0.04;

AINSWORTH      LGT SNOW  32  31  98 N17G23    29.88R WCI  20
BROKEN BOW     LGT SNOW  33  30  88 N18G29    29.76R FOG     WCI  22
6HR MIN TEMP:  33; 6HR MAX TEMP:  35; 6HR PCP:  0.06;

O`NEILL        LGT SNOW  33  33  99 N18G28    29.83S WCI  22
ORD            LGT SNOW  33  31  92 N16G29    29.76R FOG     WCI  23
6HR MIN TEMP:  33; 6HR MAX TEMP:  37; 6HR PCP:  0.01;

THEDFORD       LGT SNOW  32  30  94 N15G25    29.84R WCI  21
$$

NEZ041-046>049-061>064-073>077-083>087-220100-
SOUTH CENTRAL NEBRASKA

CITY           SKY/WX    TMP DP  RH WIND       PRES   REMARKS
GRAND ISLAND   LGT SNOW  33  33 100 NE23G32   29.70F FOG     WCI  21
6HR MIN TEMP:  33; 6HR MAX TEMP:  34; 6HR PCP:  0.01;

AURORA         CLOUDY    34  34 100 NE21G30   29.69F FOG     WCI  22
HASTINGS       LGT SNOW  33  32  96 NE23G36   29.65F FOG     WCI  21
6HR MIN TEMP:  33; 6HR MAX TEMP:  35; 6HR PCP: TRACE;

HEBRON         FOG       38  38  99 NE13      29.63F VSB 1   WCI  30
HOLDREGE       LGT RAIN  33  33 100 NE18G25   29.68R WCI  22
KEARNEY        LGT RAIN  33  32  96 NE23      29.67F FOG     WCI  21
YORK           PTCLDY    36  36 100 NE21G26   29.69F FOG     WCI  24
$$

NEZ011>018-030>034-042>045-220100-
NORTHEAST NEBRASKA

CITY           SKY/WX    TMP DP  RH WIND       PRES   REMARKS
NORFOLK        CLOUDY    48  30  49 NE18G28   29.78R
6HR MIN TEMP:  44; 6HR MAX TEMP:  52;

ALBION         LGT RAIN  37  31  78 NE24G33   29.74F WCI  25
BLAIR          CLOUDY    38  37  97 NE16      29.73R FOG     WCI  29
COLUMBUS       LGT RAIN  35  34  96 NE15      29.76S FOG     WCI  25
FREMONT        CLOUDY    37  37 100 N8        29.76R FOG     WCI  31
TEKAMAH        LGT RAIN  38  36  92 N9        29.79R FOG     WCI  31
6HR MIN TEMP:  36; 6HR MAX TEMP:  38; 6HR PCP:  0.02;

WAYNE          CLOUDY    39  31  72 NE22G31   29.79R WCI  28
$$

NEZ050>053-065>068-078-088>093-220100-
SOUTHEAST NEBRASKA

CITY           SKY/WX    TMP DP  RH WIND       PRES   REMARKS
LINCOLN        LGT RAIN  38  37  97 N14       29.72R VSB 1   WCI  30
6HR MIN TEMP:  38; 6HR MAX TEMP:  40; 6HR PCP: TRACE;

OMAHA EPPLEY   CLOUDY    39  38  96 N13       29.73R FOG     WCI  31
6HR MIN TEMP:  39; 6HR MAX TEMP:  41; 6HR PCP:  0.02;

BEATRICE       DRZL/FOG  41  41 100 NE14      29.64F VSB 3/4
FALLS CITY     CLOUDY    52  45  77 E6        29.62F
6HR MIN TEMP:  51; 6HR MAX TEMP:  58;

NEBRASKA CITY  FOG       41  41 100 N10       29.66S VSB 1/4
PLATTSMOUTH    FOG       40  40 100 NW7       29.69R VSB 1/4 WCI  35
$$

NEZ044-045-051>053-067-220100-
OMAHA AREA

CITY           SKY/WX    TMP DP  RH WIND       PRES   REMARKS
OMAHA EPPLEY   CLOUDY    39  38  96 N13       29.73R FOG     WCI  31
6HR MIN TEMP:  39; 6HR MAX TEMP:  41; 6HR PCP:  0.02;

BLAIR          CLOUDY    38  37  97 NE16      29.73R FOG     WCI  29
FREMONT        CLOUDY    37  37 100 N8        29.76R FOG     WCI  31
MILLARD        CLOUDY    41  40  95 CALM      29.73R FOG
OFFUTT AFB     CLOUDY    40  40  99 N13       29.70R FOG     WCI  32
PLATTSMOUTH    FOG       40  40 100 NW7       29.69R VSB 1/4 WCI  35
WAHOO          CLOUDY    38  37  96 N14       29.74R FOG     WCI  29
$$




USA.gov is the U.S. government's official web portal to all federal, state and local government web resources and services.